Погода в Кульдуре

Россия / Еврейская автономная область     49°12′17″N   131°38′22″E
темп.,
°C
ветер,
м/с
пор.,
м/с
влажн.,
%
обл.,
%
осадки,
мм/ч
давл.,
гПа
погр.,
м
1 марта, пн
пн101:00−22ссз5159161 0.0 1028762
04:00−23ссз6178245 0.0 1031817
07:00−26ссз417790 0.0 1032608
10:00−22сз413700 0.0 1033702
13:00−19сз6117414 0.0 10321148
16:00−18зсз598155 0.0 10301181
19:00−22сз359597 0.0 1031152
22:00−25ссз359685 0.1 103291
2 марта, вт
вт201:00−27ссз23930 0.0 103240
04:00−28ссз23920 0.0 103230
07:00−28ссз22910 0.0 103228
10:00−22ссз23840 0.0 1031216
13:00−17сз367633 0.0 10301089
16:00−16зсз468067 0.1 10281273
19:00−21сз129495 0.1 102820
22:00−24св119448 0.1 102920
3 марта, ср
ср301:00−23в119445 0.0 102820
04:00−21юв1210073 0.1 102729
07:00−21юв22100100 0.1 102567
10:00−20юв2399100 0.1 1023199
13:00−16ююв4889100 0.3 1020535
16:00−15ююв4791100 0.4 1017510
19:00−16ююв3897100 0.7 1015580
22:00−18юв2298100 1.3 101454
4 марта, чт
чт401:00−17вюв1198100 0.1 101329
04:00−18в019895 0.1 101220
07:00−16зюз009797 0.1 101220
10:00−12ю119598 0.1 1012122
13:00−8ю3491100 0.1 1010450
16:00−6юз2693100 0.8 1009531
19:00−11сз2694100 1.1 1011265
22:00−18ссз399595 1.1 1016364
5 марта, пт
пт501:00−23ссз3109897 0.0 1019338
04:00−26ссз3119892 0.1 1022328
07:00−29сз3109984 0.0 1025335
10:00−28сз4128767 0.0 1027571
13:00−25сз6118714 0.0 1028735
16:00−23сз6128747 0.0 1028943
19:00−25сз61389100 0.1 10301101
22:00−24сз6179199 0.1 10311323